GW6850 Weather Reports


Display with metric or nautical units.
time (UTC)temp
F
wind
direction
speed
MPH
gust
MPH
rain 1hr
in
rain 24hr
in
rain mn
in
humidity
%
barometer
mb
20260906231008 82 283 4.0 6.0 0.00 0.00 0.00 30 1016.6
20260906230510 83 282 6.0 8.0 0.00 0.00 0.00 29 1016.5
20260906230009 83 283 5.0 7.0 0.00 0.00 0.00 30 1016.5
20260906225509 84 293 8.0 10.0 0.00 0.00 0.00 28 1016.5
20260906225008 83 278 7.0 9.0 0.00 0.00 0.00 30 1016.5
20260906224508 83 281 7.0 12.0 0.00 0.00 0.00 30 1016.6
20260906224008 83 275 6.0 10.0 0.00 0.00 0.00 30 1016.6
20260906223508 85 265 9.0 12.0 0.00 0.00 0.00 28 1016.6
20260906223008 85 293 6.0 9.0 0.00 0.00 0.00 29 1016.5
20260906222508 85 297 6.0 8.0 0.00 0.00 0.00 28 1016.6
20260906222008 84 303 6.0 8.0 0.00 0.00 0.00 29 1016.6
20260906221509 83 279 7.0 9.0 0.00 0.00 0.00 30 1016.6
20260906221008 83 312 8.0 11.0 0.00 0.00 0.00 29 1016.6
20260906220508 82 311 8.0 9.0 0.00 0.00 0.00 30 1016.7
20260906220008 82 306 6.0 7.0 0.00 0.00 0.00 31 1016.7
20260906215508 82 302 8.0 9.0 0.00 0.00 0.00 30 1016.7
20260906215008 82 303 5.0 7.0 0.00 0.00 0.00 32 1016.6
20260906214508 83 306 8.0 10.0 0.00 0.00 0.00 29 1016.5
20260906214008 83 295 6.0 9.0 0.00 0.00 0.00 30 1016.5
20260906213508 84 293 4.0 5.0 0.00 0.00 0.00 31 1016.5
20260906213009 84 323 3.0 5.0 0.00 0.00 0.00 28 1016.6
20260906212508 84 302 3.0 3.0 0.00 0.00 0.00 31 1016.6
20260906212008 84 307 5.0 6.0 0.00 0.00 0.00 29 1016.6
20260906211508 84 315 3.0 4.0 0.00 0.00 0.00 32 1016.7
20260906211008 84 298 5.0 6.0 0.00 0.00 0.00 28 1016.9
20260906210509 85 302 5.0 8.0 0.00 0.00 0.00 28 1016.9
20260906210017 85 323 3.0 4.0 0.00 0.00 0.00 26 1016.9
20260906205508 85 8 4.0 5.0 0.00 0.00 0.00 24 1016.9
20260906205009 85 327 4.0 5.0 0.00 0.00 0.00 25 1016.9
20260906204508 85 319 4.0 5.0 0.00 0.00 0.00 27 1016.9
20260906204008 85 354 2.0 4.0 0.00 0.00 0.00 27 1016.9
20260906203508 85 359 1.0 2.0 0.00 0.00 0.00 29 1017.1
20260906203008 85 358 1.0 2.0 0.00 0.00 0.00 27 1017.2
20260906202508 85 21 1.0 2.0 0.00 0.00 0.00 30 1017.3
20260906202008 85 77 2.0 3.0 0.00 0.00 0.00 29 1017.4
20260906201508 86 65 1.0 4.0 0.00 0.00 0.00 28 1017.5
20260906201008 86 341 2.0 3.0 0.00 0.00 0.00 25 1017.5
20260906200509 85 26 0.0 2.0 0.00 0.00 0.00 26 1017.6
20260906200008 85 358 2.0 2.0 0.00 0.00 0.00 25 1017.6
20260906195508 85 2 2.0 3.0 0.00 0.00 0.00 26 1017.6
20260906195008 85 319 3.0 3.0 0.00 0.00 0.00 25 1017.8
20260906194508 85 311 2.0 4.0 0.00 0.00 0.00 29 1017.8
20260906194008 85 285 3.0 3.0 0.00 0.00 0.00 27 1017.9
20260906193509 85 315 2.0 3.0 0.00 0.00 0.00 27 1017.9
20260906193009 85 340 2.0 3.0 0.00 0.00 0.00 24 1017.9
20260906192508 85 271 2.0 2.0 0.00 0.00 0.00 25 1017.9
20260906192008 85 296 4.0 6.0 0.00 0.00 0.00 25 1018.0
20260906191509 85 268 3.0 5.0 0.00 0.00 0.00 28 1018.1
20260906191008 85 284 2.0 5.0 0.00 0.00 0.00 29 1018.2
20260906190508 85 305 4.0 7.0 0.00 0.00 0.00 28 1018.3
20260906190008 85 336 3.0 5.0 0.00 0.00 0.00 24 1018.3
20260906185508 85 276 4.0 5.0 0.00 0.00 0.00 31 1018.4
20260906185008 85 169 3.0 5.0 0.00 0.00 0.00 25 1018.4
20260906184508 85 290 3.0 5.0 0.00 0.00 0.00 26 1018.6
20260906184008 85 195 2.0 3.0 0.00 0.00 0.00 25 1018.6
20260906183508 84 222 3.0 4.0 0.00 0.00 0.00 29 1018.7
20260906183008 83 298 2.0 3.0 0.00 0.00 0.00 29 1018.7
20260906182508 82 313 1.0 3.0 0.00 0.00 0.00 31 1018.8
20260906182008 82 308 4.0 6.0 0.00 0.00 0.00 33 1019.0
20260906181509 83 256 5.0 6.0 0.00 0.00 0.00 32 1019.1
20260906181008 83 266 2.0 3.0 0.00 0.00 0.00 33 1019.2
20260906180508 82 238 2.0 3.0 0.00 0.00 0.00 30 1019.2
20260906180009 81 329 2.0 3.0 0.00 0.00 0.00 28 1019.4
20260906175508 80 227 3.0 4.0 0.00 0.00 0.00 31 1019.5
20260906175008 80 266 3.0 5.0 0.00 0.00 0.00 32 1019.5
20260906174508 80 135 4.0 5.0 0.00 0.00 0.00 31 1019.6
20260906174008 79 144 2.0 3.0 0.00 0.00 0.00 33 1019.7
20260906173508 79 134 3.0 4.0 0.00 0.00 0.00 30 1019.7
20260906173008 79 264 0.0 1.0 0.00 0.00 0.00 31 1019.8
20260906172508 79 162 3.0 5.0 0.00 0.00 0.00 32 1019.9
20260906172008 79 110 2.0 3.0 0.00 0.00 0.00 32 1019.9
20260906171508 79 142 3.0 4.0 0.00 0.00 0.00 33 1019.9
20260906171008 79 253 2.0 4.0 0.00 0.00 0.00 36 1019.9
20260906170508 78 183 2.0 5.0 0.00 0.00 0.00 36 1020.0
20260906170009 78 145 3.0 4.0 0.00 0.00 0.00 35 1020.0
20260906165508 78 210 2.0 3.0 0.00 0.00 0.00 36 1020.0
20260906165008 77 132 5.0 7.0 0.00 0.00 0.00 32 1020.0
20260906164510 77 148 2.0 4.0 0.00 0.00 0.00 34 1020.0
20260906164008 76 120 4.0 5.0 0.00 0.00 0.00 34 1020.0
20260906163509 76 101 2.0 3.0 0.00 0.00 0.00 39 1020.2
20260906163008 77 198 3.0 5.0 0.00 0.00 0.00 37 1020.2
20260906162508 76 64 2.0 4.0 0.00 0.00 0.00 37 1020.2
20260906162010 76 210 2.0 4.0 0.00 0.00 0.00 37 1020.3
20260906161508 76 93 4.0 7.0 0.00 0.00 0.00 38 1020.2
20260906161008 75 139 3.0 4.0 0.00 0.00 0.00 38 1020.2
20260906160508 75 149 1.0 2.0 0.00 0.00 0.00 39 1020.2
20260906160008 74 112 1.0 2.0 0.00 0.00 0.00 41 1020.3
20260906155508 74 154 2.0 2.0 0.00 0.00 0.00 39 1020.3
20260906155008 74 153 3.0 4.0 0.00 0.00 0.00 41 1020.3
20260906154508 74 214 2.0 4.0 0.00 0.00 0.00 39 1020.3
20260906154008 74 198 2.0 3.0 0.00 0.00 0.00 40 1020.3
20260906153508 72 108 0.0 1.0 0.00 0.00 0.00 42 1020.3
20260906153008 71 153 1.0 3.0 0.00 0.00 0.00 43 1020.4
20260906152508 72 183 2.0 4.0 0.00 0.00 0.00 43 1020.5
20260906152008 72 133 3.0 4.0 0.00 0.00 0.00 40 1020.5
20260906151508 73 196 3.0 5.0 0.00 0.00 0.00 38 1020.4
20260906151008 72 256 1.0 2.0 0.00 0.00 0.00 43 1020.4
20260906150509 71 109 2.0 2.0 0.00 0.00 0.00 41 1020.5
20260906150009 70 159 1.0 2.0 0.00 0.00 0.00 39 1020.5
20260906145508 70 149 2.0 2.0 0.00 0.00 0.00 43 1020.5
20260906145008 70 176 2.0 4.0 0.00 0.00 0.00 42 1020.5
20260906144508 70 139 1.0 2.0 0.00 0.00 0.00 47 1020.5
20260906144008 69 114 2.0 4.0 0.00 0.00 0.00 44 1020.5
20260906143508 68 86 2.0 3.0 0.00 0.00 0.00 45 1020.5
20260906143009 67 115 0.0 2.0 0.00 0.00 0.00 52 1020.5
20260906142509 65 76 1.0 2.0 0.00 0.00 0.00 57 1020.5
20260906142008 63 94 2.0 2.0 0.00 0.00 0.00 62 1020.5
20260906141508 62 322 1.0 2.0 0.00 0.00 0.00 63 1020.5
20260906141008 60 330 1.0 1.0 0.00 0.00 0.00 64 1020.5
20260906140508 59 354 1.0 2.0 0.00 0.00 0.00 66 1020.5
20260906140009 58 323 0.0 1.0 0.00 0.00 0.00 68 1020.5
20260906135509 56 359 1.0 2.0 0.00 0.00 0.00 68 1020.5
20260906135009 55 60 2.0 3.0 0.00 0.00 0.00 70 1020.4
20260906134508 54 50 2.0 2.0 0.00 0.00 0.00 72 1020.4
20260906134008 54 360 1.0 1.0 0.00 0.00 0.00 73 1020.4
20260906133531 54 355 1.0 2.0 0.00 0.00 0.00 73 1020.4
20260906133008 54 16 2.0 3.0 0.00 0.00 0.00 72 1020.3
20260906132508 54 341 1.0 1.0 0.00 0.00 0.00 72 1020.2
20260906132009 54 153 0.0 1.0 0.00 0.00 0.00 72 1020.0
20260906131508 54 109 1.0 2.0 0.00 0.00 0.00 71 1020.0
20260906131008 54 36 2.0 3.0 0.00 0.00 0.00 71 1020.0
20260906130508 53 21 1.0 2.0 0.00 0.00 0.00 72 1019.9
20260906130009 53 37 1.0 2.0 0.00 0.00 0.00 73 1019.9
20260906125508 53 135 2.0 3.0 0.00 0.00 0.00 73 1019.9
20260906125009 53 69 2.0 2.0 0.00 0.00 0.00 74 1019.9
20260906124508 53 27 1.0 2.0 0.00 0.00 0.00 74 1020.0
20260906124008 53 118 0.0 1.0 0.00 0.00 0.00 73 1020.0
20260906123508 53 274 2.0 2.0 0.00 0.00 0.00 73 1020.0
20260906123009 53 346 1.0 1.0 0.00 0.00 0.00 72 1019.7
20260906122509 53 55 1.0 2.0 0.00 0.00 0.00 71 1019.7
20260906122009 53 353 1.0 2.0 0.00 0.00 0.00 72 1019.8
20260906121508 53 140 0.0 1.0 0.00 0.00 0.00 73 1019.7
20260906121008 53 99 2.0 3.0 0.00 0.00 0.00 74 1019.7
20260906120509 53 10 1.0 1.0 0.00 0.00 0.00 76 1019.7
20260906120008 52 76 2.0 2.0 0.00 0.00 0.00 77 1019.7
20260906115509 52 336 0.0 1.0 0.00 0.00 0.00 76 1019.7
20260906115008 52 360 0.0 0.0 0.00 0.00 0.00 76 1019.7
20260906114508 52 51 1.0 2.0 0.00 0.00 0.00 76 1019.7
20260906114008 52 41 1.0 1.0 0.00 0.00 0.00 76 1019.6
20260906113508 52 360 0.0 0.0 0.00 0.00 0.00 76 1019.6
20260906113008 52 342 0.0 1.0 0.00 0.00 0.00 76 1019.6
20260906112509 53 360 0.0 0.0 0.00 0.00 0.00 75 1019.6
20260906112008 53 230 0.0 0.0 0.00 0.00 0.00 75 1019.6
20260906111508 53 225 1.0 1.0 0.00 0.00 0.00 75 1019.6
20260906111008 53 77 0.0 1.0 0.00 0.00 0.00 75 1019.5
20260906110509 53 72 2.0 2.0 0.00 0.00 0.00 75 1019.5
20260906110008 53 40 1.0 1.0 0.00 0.00 0.00 75 1019.4
20260906105509 53 203 0.0 1.0 0.00 0.00 0.00 75 1019.4
20260906105009 53 111 0.0 1.0 0.00 0.00 0.00 75 1019.5
20260906104508 53 251 1.0 2.0 0.00 0.00 0.00 75 1019.5
20260906104009 53 311 1.0 1.0 0.00 0.00 0.00 75 1019.4
20260906103508 53 20 1.0 1.0 0.00 0.00 0.00 75 1019.4
20260906103008 53 86 0.0 1.0 0.00 0.00 0.00 75 1019.2
20260906102508 53 102 0.0 0.0 0.00 0.00 0.00 75 1019.2
20260906102008 53 360 0.0 0.0 0.00 0.00 0.00 75 1019.2
20260906101508 53 67 1.0 2.0 0.00 0.00 0.00 75 1019.2
20260906101008 52 73 1.0 2.0 0.00 0.00 0.00 74 1019.1
20260906100508 53 288 0.0 1.0 0.00 0.00 0.00 74 1019.2
20260906100021 53 360 0.0 0.0 0.00 0.00 0.00 73 1019.2
20260906095509 53 216 0.0 0.0 0.00 0.00 0.00 74 1019.2
20260906095008 53 158 0.0 1.0 0.00 0.00 0.00 73 1019.1
20260906094509 53 285 0.0 0.0 0.00 0.00 0.00 73 1019.0
20260906094009 53 334 0.0 0.0 0.00 0.00 0.00 72 1019.1
20260906093508 54 360 0.0 0.0 0.00 0.00 0.00 71 1019.1
20260906093008 54 34 0.0 0.0 0.00 0.00 0.00 71 1019.0
20260906092509 54 315 1.0 1.0 0.00 0.00 0.00 70 1019.0
20260906092009 54 60 1.0 1.0 0.00 0.00 0.00 69 1019.0
20260906091509 54 322 0.0 0.0 0.00 0.00 0.00 68 1019.1
20260906091008 54 253 0.0 0.0 0.00 0.00 0.00 68 1019.1
20260906090508 54 249 1.0 1.0 0.00 0.00 0.00 68 1019.1
20260906090008 55 114 0.0 1.0 0.00 0.00 0.00 68 1019.1
20260906085508 55 83 0.0 1.0 0.00 0.00 0.00 67 1019.1
20260906085009 55 77 0.0 1.0 0.00 0.00 0.00 67 1019.0
20260906084508 55 70 1.0 2.0 0.00 0.00 0.00 66 1019.1
20260906084008 55 119 2.0 2.0 0.00 0.00 0.00 66 1019.1
20260906083509 55 6 2.0 2.0 0.00 0.00 0.00 65 1019.1
20260906083008 55 97 2.0 2.0 0.00 0.00 0.00 66 1019.1
20260906082508 55 68 1.0 2.0 0.00 0.00 0.00 67 1019.1
20260906082008 55 57 1.0 2.0 0.00 0.00 0.00 67 1019.1
20260906081508 55 54 1.0 2.0 0.00 0.00 0.00 66 1019.2
20260906081008 55 333 1.0 1.0 0.00 0.00 0.00 65 1019.2
20260906080508 55 106 1.0 2.0 0.00 0.00 0.00 65 1019.2
20260906080008 55 349 0.0 1.0 0.00 0.00 0.00 64 1019.1
20260906075509 56 68 2.0 2.0 0.00 0.00 0.00 64 1019.1
20260906075008 56 16 1.0 2.0 0.00 0.00 0.00 64 1019.0
20260906074508 56 68 1.0 2.0 0.00 0.00 0.00 63 1019.0
20260906074009 56 339 1.0 2.0 0.00 0.00 0.00 64 1019.0
20260906073508 56 133 1.0 1.0 0.00 0.00 0.00 64 1019.0
20260906073008 56 92 2.0 2.0 0.00 0.00 0.00 64 1019.1
20260906072509 56 307 0.0 0.0 0.00 0.00 0.00 64 1019.1
20260906072008 56 127 2.0 2.0 0.00 0.00 0.00 65 1019.0
20260906071508 56 141 1.0 1.0 0.00 0.00 0.00 64 1019.1
20260906071017 56 290 1.0 2.0 0.00 0.00 0.00 63 1019.1
20260906070508 56 109 0.0 1.0 0.00 0.00 0.00 63 1019.1
20260906070008 56 360 0.0 0.0 0.00 0.00 0.00 62 1019.1
20260906065509 57 262 0.0 1.0 0.00 0.00 0.00 62 1019.1
20260906065008 57 263 1.0 1.0 0.00 0.00 0.00 62 1019.1
20260906064509 58 276 1.0 2.0 0.00 0.00 0.00 58 1019.0
20260906064008 58 327 0.0 1.0 0.00 0.00 0.00 57 1018.9
20260906063508 58 36 0.0 0.0 0.00 0.00 0.00 58 1019.0
20260906063008 58 92 0.0 1.0 0.00 0.00 0.00 58 1019.0
20260906062508 59 30 2.0 2.0 0.00 0.00 0.00 56 1018.9
20260906062008 59 27 1.0 2.0 0.00 0.00 0.00 55 1018.8
20260906061508 59 10 1.0 1.0 0.00 0.00 0.00 53 1018.8
20260906061008 60 75 1.0 2.0 0.00 0.00 0.00 56 1018.7
20260906060508 60 82 1.0 1.0 0.00 0.00 0.00 54 1018.7
20260906060008 60 33 2.0 3.0 0.00 0.00 0.00 52 1018.7
20260906055511 60 46 1.0 2.0 0.00 0.00 0.00 54 1018.7
20260906055008 60 48 1.0 2.0 0.00 0.00 0.00 55 1018.7
20260906054509 60 53 1.0 1.0 0.00 0.00 0.00 53 1018.7
20260906054008 61 354 1.0 2.0 0.00 0.00 0.00 53 1018.7
20260906053509 61 39 2.0 3.0 0.00 0.00 0.00 51 1018.7
20260906053009 61 53 1.0 1.0 0.00 0.00 0.00 51 1018.7
20260906052511 62 58 1.0 1.0 0.00 0.00 0.00 49 1018.7
20260906052008 62 78 1.0 1.0 0.00 0.00 0.00 49 1018.7
20260906051508 62 55 1.0 2.0 0.00 0.00 0.00 49 1018.6
20260906051009 62 67 1.0 2.0 0.00 0.00 0.00 48 1018.6
20260906050508 62 340 2.0 2.0 0.00 0.00 0.00 47 1018.6
20260906050009 62 59 1.0 2.0 0.00 0.00 0.00 50 1018.6
20260906045510 62 60 2.0 2.0 0.00 0.00 0.00 50 1018.6
20260906045009 62 15 1.0 1.0 0.00 0.00 0.00 48 1018.6
20260906044509 62 2 2.0 2.0 0.00 0.00 0.00 48 1018.4
20260906044008 62 61 2.0 2.0 0.00 0.00 0.00 51 1018.6
20260906043509 63 67 0.0 1.0 0.00 0.00 0.00 51 1018.4
20260906043008 63 69 2.0 2.0 0.00 0.00 0.00 50 1018.4
20260906042508 63 341 1.0 1.0 0.00 0.00 0.00 49 1018.4
20260906042016 64 57 2.0 2.0 0.00 0.00 0.00 49 1018.4
20260906041508 64 69 2.0 2.0 0.00 0.00 0.00 51 1018.4
20260906041008 64 119 0.0 0.0 0.00 0.00 0.00 52 1018.4
20260906040508 64 45 1.0 2.0 0.00 0.00 0.00 51 1018.3
20260906040008 64 19 1.0 1.0 0.00 0.00 0.00 51 1018.3
20260906035508 64 41 1.0 2.0 0.00 0.00 0.00 54 1018.2
20260906035008 65 360 0.0 0.0 0.00 0.00 0.00 54 1018.2
20260906034508 65 49 1.0 1.0 0.00 0.00 0.00 53 1018.2
20260906034008 65 349 0.0 1.0 0.00 0.00 0.00 51 1018.2
20260906033508 66 266 1.0 2.0 0.00 0.00 0.00 50 1018.1
20260906033008 67 41 0.0 1.0 0.00 0.00 0.00 49 1018.1
20260906032508 67 28 0.0 0.0 0.00 0.00 0.00 47 1018.1
20260906032009 68 167 1.0 2.0 0.00 0.00 0.00 50 1018.0
20260906031508 69 68 1.0 2.0 0.00 0.00 0.00 47 1017.9
20260906031008 69 62 1.0 2.0 0.00 0.00 0.00 47 1017.8
20260906030508 70 52 1.0 2.0 0.00 0.00 0.00 43 1017.6
20260906030008 70 42 0.0 1.0 0.00 0.00 0.00 39 1017.6
20260906025508 70 60 1.0 2.0 0.00 0.00 0.00 40 1017.5
20260906025009 70 73 2.0 3.0 0.00 0.00 0.00 41 1017.5
20260906024025 70 59 1.0 3.0 0.00 0.00 0.00 42 1017.4
20260906023508 70 25 0.0 1.0 0.00 0.00 0.00 41 1017.3
20260906023009 70 317 0.0 1.0 0.00 0.00 0.00 43 1017.2
20260906022508 71 248 0.0 0.0 0.00 0.00 0.00 44 1017.2
20260906022008 71 44 0.0 2.0 0.00 0.00 0.00 44 1017.2
20260906021508 72 360 0.0 0.0 0.00 0.00 0.00 44 1017.2
20260906021008 73 324 0.0 1.0 0.00 0.00 0.00 44 1017.1
20260906020509 74 302 0.0 1.0 0.00 0.00 0.00 42 1017.1
20260906020009 75 26 1.0 2.0 0.00 0.00 0.00 41 1017.1
20260906015508 76 335 0.0 1.0 0.00 0.00 0.00 41 1017.1
20260906015008 78 48 1.0 2.0 0.00 0.00 0.00 38 1016.9
20260906014508 79 295 0.0 1.0 0.00 0.00 0.00 39 1016.9
20260906014008 80 57 2.0 2.0 0.00 0.00 0.00 38 1016.9
20260906013509 82 64 2.0 2.0 0.00 0.00 0.00 36 1016.9
20260906013008 84 60 1.0 2.0 0.00 0.00 0.00 33 1016.9
20260906012508 85 205 0.0 1.0 0.00 0.00 0.00 34 1016.9
20260906012008 85 337 1.0 2.0 0.00 0.00 0.00 31 1016.9
20260906011509 86 332 1.0 2.0 0.00 0.00 0.00 30 1016.9
20260906011008 87 340 1.0 2.0 0.00 0.00 0.00 31 1016.9
20260906010509 87 272 1.0 2.0 0.00 0.00 0.00 30 1016.9
20260906010008 88 282 0.0 1.0 0.00 0.00 0.00 32 1016.9
20260906005508 89 251 2.0 2.0 0.00 0.00 0.00 30 1016.9
20260906005009 89 215 0.0 1.0 0.00 0.00 0.00 27 1016.8
20260906004508 89 259 0.0 1.0 0.00 0.00 0.00 27 1016.8
20260906004008 90 342 1.0 3.0 0.00 0.00 0.00 27 1016.8
20260906003508 90 349 1.0 2.0 0.00 0.00 0.00 26 1016.8
20260906003008 89 348 2.0 2.0 0.00 0.00 0.00 23 1016.8
20260906002034 89 273 2.0 4.0 0.00 0.00 0.00 26 1016.8
20260906001508 90 352 3.0 5.0 0.00 0.00 0.00 23 1016.8
20260906001009 90 351 1.0 2.0 0.00 0.00 0.00 26 1016.8
20260906000508 90 318 2.0 4.0 0.00 0.00 0.00 27 1016.8
20260906000008 90 276 3.0 4.0 0.00 0.00 0.00 25 1016.8
20260905235509 91 265 3.0 3.0 0.00 0.00 0.00 28 1016.9
20260905235008 92 214 1.0 2.0 0.00 0.00 0.00 23 1016.8
20260905234508 92 282 2.0 2.0 0.00 0.00 0.00 25 1016.9
20260905234008 92 241 1.0 2.0 0.00 0.00 0.00 26 1016.9
20260905233508 92 326 1.0 2.0 0.00 0.00 0.00 22 1016.9
20260905233008 91 277 2.0 2.0 0.00 0.00 0.00 28 1016.9
20260905232508 90 312 1.0 2.0 0.00 0.00 0.00 23 1016.8
20260905232008 90 322 2.0 4.0 0.00 0.00 0.00 26 1016.9
20260905231509 89 271 2.0 2.0 0.00 0.00 0.00 25 1016.9